Notices

What's New in latest Release from April 7th, 2021:

- Updated Glossary, including Speed of Maximum Gust, and Total Hourly Precipitation

- Updated national and regional climate services offices contacts and prices information

- Addition of station inventory lists for 1981-2010, 1971-2000, and 1961-1990 Normals.

If you haven't already, please take our survey and provide feedback about our website: https://eccc.sondage-survey.ca/f/LanguageSelection.aspx?s=442ca660-fcf1-47c0-95a9-59707d6fd709

Hourly Data Report for October 17, 2015

IQALUIT CLIMATE
NUNAVUT

63°44'50.000" N
68°32'40.000" W
33.50 m
2402592
71321
XFB

Download Data

Hourly Data (October 2015)
Hourly Data Report for October 17, 2015
TIME
LST
Temp Definition
°C
Dew Point Definition
°C
Rel Hum Definition
%
Precip. Amount Definition
mm

Wind Dir Definition
10's deg

Wind Spd Definition
km/h
Visibility Definition
km
Stn Press Definition
kPa
Hmdx Definition


Wind Chill Definition


Weather Definition


00:00 -6.6 -10.0 77 0.0 30 7   100.68   -10 LegendNANA
01:00 -6.6 -9.7 79 0.0 2 4   100.67   -9 LegendNANA
02:00 -6.5 -9.8 77 0.0 34 3   100.66   -8 LegendNANA
03:00 -6.4 -9.9 76 0.0 0 1   100.66   -7 LegendNANA
04:00 -6.3 -9.2 80 0.0 9 4   100.65   -8 LegendNANA
05:00 -6.2 -9.0 81 0.0 6 4   100.66   -8 LegendNANA
06:00 -6.0 -8.6 82 0.0 8 2   100.67   -7 LegendNANA
07:00 -5.8 -8.3 82 0.0 1 3   100.68   -7 LegendNANA
08:00 -5.4 -8.7 78 0.0   0   100.69     LegendNANA
09:00 -4.8 -9.6 69 0.0 32 1   100.68   -5 LegendNANA
10:00 -4.2 -9.0 69 0.0 28 5   100.66   -6 LegendNANA
11:00 -4.2 -9.1 69 0.0 25 4   100.67   -6 LegendNANA
12:00 -4.2 -8.3 73 0.0 17 5   100.66   -6 LegendNANA
13:00 -3.8 -8.5 69 0.0 21 3   100.65   -5 LegendNANA
14:00 -3.5 -8.7 67 0.0 23 13   100.66   -8 LegendNANA
15:00 -3.9 -9.2 66 0.0 25 14   100.68   -9 LegendNANA
16:00 -4.3 -8.7 71 0.0 31 11   100.70   -9 LegendNANA
17:00 -5.2 -7.9 81 0.0 1 8   100.73   -9 LegendNANA
18:00 -5.3 -8.3 80 0.0 35 10   100.74   -10 LegendNANA
19:00 -5.6 -8.9 78 0.0 1 7   100.76   -9 LegendNANA
20:00 -6.1 -8.1 86 0.0 35 5   100.76   -9 LegendNANA
21:00 -6.7 -9.4 81 0.0 36 7   100.77   -10 LegendNANA
22:00 -6.9 -9.9 79 0.0 34 8   100.77   -11 LegendNANA
23:00 -6.8 -10.2 77 0.0 36 8   100.78   -11 LegendNANA

Notes on Data Quality.

Legend

  • E = Estimated
  • M = Missing
  • NA = Not Available*
  • [empty] = Indicates an unobserved value
Date modified: